Starlink 30802

operational
NORAD ID: 58150 Int'l Des: 2023-166 Owner: SPXS Country: US Constellation: starlink
LEOCIRCULAR

About Starlink 30802

Description loading...

Live Position

Loading 3D Globe...

Upcoming Passes

Altitude History

Altitude vs Time

uPlot chart will show altitude changes over time

Two-Line Element Set

1 58150U 23166A 25351.12388885 .00023274 00000-0 79573-3 0 9998
2 58150 53.1584 243.4270 0001355 87.1312 272.9844 15.30189518120533
Epoch: Dec 17, 2025 • Age: 17 hours

Current Status

Altitude 492.2 km
Velocity 7.62 km/s
Sub-Earth Point -47.44°S, 160.32°E
Launch Date Oct 29, 2023
Age 2.1 years
Type internet

Technical Details

Classification Payload
Mass 730.00 kg
Dry Mass 700.00 kg
Total Mass 730.00 kg
Length 0.30 m
Diameter 4.10 m
Span 29.00 m
Shape Box + pan
Manufacturer SPXS
Bus Type Starlink V2M
Phase Status In Orbit
Owner/State SPXS/US

Large Constellations

Loading constellations...